Hermiston, OR

9:59 AM PDT on April 27, 2017 (GMT -0700)
Hermiston Municipal

Weather History for KHRI - June, 2013

Change the Weather History Date:

Wednesday, June 12, 2013

  Actual Average Record
Temperature  
Mean Temperature 60 °F 65 °F  
Max Temperature 75 °F 80 °F 104 °F (1940)
Min Temperature 46 °F 51 °F 36 °F (1919)
Degree Days  
Heating Degree Days 6    
Growing Degree Days 10 (Base 50)    
Moisture  
Dew Point 38 °F    
Average Humidity 47    
Maximum Humidity 74    
Minimum Humidity 23    
Precipitation  
Precipitation 0.00 in 0.02 in 0.69 in (1950)
Month to date precipitation 0.35  
Year to date precipitation 5.68  
Sea Level Pressure  
Sea Level Pressure 30.05 in    
Wind  
Wind Speed 9 mph (WSW)    
Max Wind Speed 16 mph    
Max Gust Speed 24 mph    
Visibility 10 miles    
Events      
T = Trace of Precipitation, MM = Missing Value Source: NWS Daily Summary

Daily Weather History Graph

Daily Weather History Graph

Search for Another Location

Airport or City:

Trip Planner

Search our weather history database for the weather conditions in past years. The results will help you decide how hot, cold, wet, or windy it might be!

Date:

Astronomy

Jun. 12, 2013 Rise Set
Actual Time 5:06 AM PDT 8:47 PM PDT
Civil Twilight 4:28 AM PDT 9:25 PM PDT
Nautical Twilight 3:37 AM PDT 10:17 PM PDT
Astronomical Twilight 2:27 AM PDT 11:27 PM PDT
Moon 9:00 AM PDT (6/12) 11:14 PM PDT (6/12)
Length of Visible Light 16h 57m
Length of Day
15h 41m
Waxing Crescent, 15% of the Moon is Illuminated
Jun 12
Waxing Crescent
Jun 16
First Quarter
Jun 23
Full
Jun 29
Last Quarter
Jul 8
New

Hourly Weather History & Observations

Time (PDT) Temp. Dew Point Humidity Pressure Visibility Wind Dir Wind Speed Gust Speed Precip Events Conditions
12:53 AM 53.1 °F 41.0 °F 64% 30.07 in 10.0 mi SW 11.5 mph - N/A   Clear
1:53 AM 50.0 °F 41.0 °F 71% 30.07 in 10.0 mi SSW 6.9 mph - N/A   Clear
2:53 AM 48.0 °F 39.9 °F 74% 30.07 in 10.0 mi Calm Calm - N/A   Clear
3:53 AM 48.9 °F 39.9 °F 71% 30.07 in 10.0 mi SW 6.9 mph - N/A   Clear
4:53 AM 46.9 °F 39.0 °F 74% 30.08 in 10.0 mi South 3.5 mph - N/A   Clear
5:53 AM 50.0 °F 39.9 °F 68% 30.09 in 10.0 mi SW 8.1 mph - N/A   Clear
6:53 AM 53.1 °F 41.0 °F 64% 30.09 in 10.0 mi West 5.8 mph - N/A   Clear
7:53 AM 57.9 °F 42.1 °F 56% 30.09 in 10.0 mi West 9.2 mph - N/A   Clear
8:53 AM 60.1 °F 41.0 °F 49% 30.09 in 10.0 mi WSW 11.5 mph - N/A   Clear
9:53 AM 63.0 °F 39.9 °F 43% 30.08 in 10.0 mi WSW 11.5 mph 17.3 mph N/A   Clear
10:53 AM 64.9 °F 36.0 °F 34% 30.08 in 10.0 mi WSW 11.5 mph 21.9 mph N/A   Mostly Cloudy
11:53 AM 69.1 °F 36.0 °F 30% 30.06 in 10.0 mi WSW 15.0 mph 21.9 mph N/A   Partly Cloudy
12:53 PM 70.0 °F 37.0 °F 30% 30.05 in 10.0 mi West 16.1 mph 24.2 mph N/A   Partly Cloudy
1:53 PM 72.0 °F 36.0 °F 27% 30.04 in 10.0 mi West 10.4 mph - N/A   Clear
2:53 PM 72.0 °F 36.0 °F 27% 30.02 in 10.0 mi Variable 5.8 mph - N/A   Clear
3:53 PM 73.0 °F 36.0 °F 26% 30.01 in 10.0 mi Variable 4.6 mph - N/A   Clear
4:53 PM 73.9 °F 35.1 °F 24% 30.00 in 10.0 mi WSW 9.2 mph 16.1 mph N/A   Clear
5:53 PM 73.0 °F 34.0 °F 24% 29.98 in 10.0 mi WSW 6.9 mph 23.0 mph N/A   Clear
6:53 PM 72.0 °F 32.0 °F 23% 29.98 in 10.0 mi West 10.4 mph - N/A   Clear
7:53 PM 69.1 °F 34.0 °F 27% 29.98 in 10.0 mi West 9.2 mph - N/A   Clear
8:53 PM 64.0 °F 39.0 °F 40% 29.99 in 10.0 mi WSW 11.5 mph - N/A   Clear
9:53 PM 57.0 °F 42.1 °F 57% 30.02 in 10.0 mi South 10.4 mph - N/A   Clear
10:53 PM 57.9 °F 42.1 °F 56% 30.04 in 10.0 mi SW 13.8 mph - N/A   Mostly Cloudy
11:53 PM 55.0 °F 41.0 °F 59% 30.05 in 10.0 mi SW 15.0 mph - N/A   Scattered Clouds